�N����,����,�~����,�C��,���x,�C��,����,���ϕ���,�ő�u�ԕ���,�ő厞����,���˗�,�I�_���x,�n�����x,�ő啗���N��,DTYPE
"17/10/17","00:10",0.0,14.1,97.5,1017.3,272.8,1.2,1.9,271.0,0.00,13.8,17.8,"00:06:40",1
"17/10/17","00:20",0.0,14.1,97.6,1016.8,307.9,1.6,3.1,338.5,0.00,13.8,17.8,"00:16:48",1
"17/10/17","00:30",0.2,14.2,97.6,1016.8,289.0,1.1,1.7,267.2,0.00,13.9,17.7,"00:28:24",1
"17/10/17","00:40",0.0,14.0,97.6,1017.1,285.6,1.1,3.3,338.1,0.00,13.7,17.8,"00:39:36",1
"17/10/17","00:50",0.2,14.0,97.6,1017.3,328.4,1.7,2.6,342.8,0.00,13.7,17.8,"00:48:24",1
"17/10/17","01:00",0.0,13.9,97.5,1017.8,319.1,1.2,3.1,334.2,0.00,13.6,17.8,"00:57:44",1
"17/10/17","01:10",0.0,13.9,97.5,1016.8,336.9,1.2,2.2,338.2,0.00,13.6,17.8,"01:02:16",1
"17/10/17","01:20",0.0,13.8,97.5,1016.6,324.2,1.2,2.2,331.9,0.00,13.5,17.7,"01:17:58",1
"17/10/17","01:30",0.2,13.7,97.5,1016.8,297.1,1.0,1.8,320.5,0.00,13.4,17.8,"01:20:16",1
"17/10/17","01:40",0.0,13.7,97.6,1016.8,307.3,1.2,2.2,337.2,0.00,13.4,17.7,"01:36:00",1
"17/10/17","01:50",0.2,13.7,97.5,1016.8,323.7,1.5,2.9,4.8,0.00,13.4,17.5,"01:44:32",1
"17/10/17","02:00",0.0,13.7,97.4,1016.6,311.9,1.5,4.1,326.2,0.00,13.3,17.6,"01:59:20",1
"17/10/17","02:10",0.0,13.6,97.5,1016.6,335.4,1.7,3.7,336.9,0.00,13.3,17.6,"02:08:18",1
"17/10/17","02:20",0.2,13.6,97.5,1016.4,335.6,2.6,4.7,332.6,0.00,13.3,17.6,"02:10:02",1
"17/10/17","02:30",0.0,13.6,97.4,1016.6,337.3,2.6,5.2,336.8,0.00,13.2,17.4,"02:28:44",1
"17/10/17","02:40",0.0,13.6,97.3,1016.8,322.9,1.6,3.1,314.0,0.00,13.2,17.4,"02:30:22",1
"17/10/17","02:50",0.2,13.6,97.2,1016.8,311.1,1.3,2.5,339.0,0.00,13.2,17.5,"02:49:14",1
"17/10/17","03:00",0.0,13.6,97.3,1016.6,298.9,0.8,1.6,311.2,0.00,13.2,17.7,"02:51:52",1
"17/10/17","03:10",0.0,13.6,97.4,1016.8,326.8,0.8,1.4,330.1,0.00,13.2,17.4,"03:00:16",1
"17/10/17","03:20",0.2,13.6,97.4,1016.8,318.0,1.0,1.4,314.4,0.00,13.2,17.4,"03:19:28",1
"17/10/17","03:30",0.0,13.7,97.5,1016.4,318.0,1.1,1.6,295.3,0.00,13.4,17.6,"03:20:08",1
"17/10/17","03:40",0.0,13.6,97.4,1016.4,306.7,1.1,2.1,323.8,0.00,13.2,17.4,"03:39:54",1
"17/10/17","03:50",0.2,13.5,97.5,1016.1,319.0,1.5,2.2,309.7,0.00,13.2,17.6,"03:44:48",1
"17/10/17","04:00",0.0,13.5,97.5,1016.6,324.3,1.8,2.7,344.1,0.00,13.2,17.4,"03:58:56",1
"17/10/17","04:10",0.0,13.4,97.6,1016.6,325.4,2.1,4.4,333.9,0.00,13.1,17.4,"04:03:16",1
"17/10/17","04:20",0.2,13.4,97.6,1016.6,331.3,1.3,2.7,326.4,0.00,13.1,17.4,"04:10:28",1
"17/10/17","04:30",0.0,13.5,97.6,1016.6,338.2,1.2,2.4,332.5,0.00,13.2,17.4,"04:28:42",1
"17/10/17","04:40",0.0,13.5,97.5,1016.6,334.1,1.7,3.4,345.0,0.00,13.2,17.3,"04:33:22",1
"17/10/17","04:50",0.2,13.5,97.6,1016.8,298.9,1.3,2.1,307.2,0.00,13.2,17.4,"04:41:26",1
"17/10/17","05:00",0.0,13.5,97.6,1016.6,321.5,1.7,3.1,332.8,0.00,13.2,17.3,"04:50:16",1
"17/10/17","05:10",0.0,13.5,97.7,1016.1,328.6,0.7,1.4,328.7,0.00,13.2,17.4,"05:01:08",1
"17/10/17","05:20",0.0,13.6,97.8,1016.8,296.0,0.7,1.1,311.4,0.00,13.3,17.2,"05:18:08",1
"17/10/17","05:30",0.2,13.6,97.7,1016.4,294.3,0.8,1.7,310.3,0.00,13.3,17.3,"05:24:40",1
"17/10/17","05:40",0.0,13.6,97.8,1016.4,327.6,1.2,2.0,342.0,0.00,13.3,17.4,"05:37:20",1
"17/10/17","05:50",0.0,13.5,97.9,1016.6,308.9,1.1,1.4,318.0,0.00,13.2,17.3,"05:40:40",1
"17/10/17","06:00",0.2,13.6,97.9,1016.8,311.9,1.0,1.7,333.2,0.00,13.3,17.2,"05:59:52",1
"17/10/17","06:10",0.0,13.6,97.9,1017.1,325.4,1.2,2.2,338.3,0.00,13.3,17.2,"06:02:50",1
"17/10/17","06:20",0.0,13.6,97.9,1016.8,283.7,0.8,1.1,309.5,0.00,13.3,17.1,"06:10:32",1
"17/10/17","06:30",0.0,13.6,98.0,1017.1,274.0,0.5,1.2,314.8,0.00,13.3,17.2,"06:28:16",1
"17/10/17","06:40",0.2,14.0,97.0,1016.6,304.5,0.7,1.4,310.4,0.00,13.6,17.2,"06:37:28",1
"17/10/17","06:50",0.0,13.8,97.8,1017.1,288.2,0.8,1.2,262.7,0.00,13.5,17.4,"06:40:32",1
"17/10/17","07:00",0.0,13.9,97.8,1016.6,320.0,0.8,2.1,320.1,0.00,13.6,17.3,"06:59:58",1
"17/10/17","07:10",0.2,13.9,97.9,1017.1,322.4,1.2,1.9,319.7,0.00,13.6,17.3,"07:08:08",1
"17/10/17","07:20",0.0,13.9,98.0,1017.3,298.9,0.8,1.3,331.6,0.00,13.6,17.4,"07:18:16",1
"17/10/17","07:30",0.0,14.3,97.0,1017.3,305.1,1.1,1.8,308.8,0.01,13.9,17.3,"07:23:46",1
"17/10/17","07:40",0.0,14.1,97.6,1017.3,317.9,1.1,1.7,326.7,0.00,13.8,17.5,"07:34:52",1
"17/10/17","07:50",0.2,14.2,97.9,1017.8,320.0,1.3,2.8,335.1,0.02,13.9,17.3,"07:45:06",1
"17/10/17","08:00",0.0,14.4,97.7,1017.5,331.3,0.8,2.5,311.6,0.02,14.1,17.4,"07:53:12",1
"17/10/17","08:10",0.2,14.5,97.6,1017.8,321.3,1.0,1.9,337.3,0.01,14.2,17.4,"08:09:20",1
"17/10/17","08:20",0.0,14.6,97.8,1018.0,317.9,1.2,2.5,334.3,0.01,14.3,17.4,"08:10:48",1
"17/10/17","08:30",0.0,14.6,97.6,1017.5,311.1,1.3,2.6,315.3,0.02,14.3,17.5,"08:23:52",1
"17/10/17","08:40",0.0,14.7,97.6,1017.5,285.7,0.8,1.7,335.3,0.03,14.4,17.4,"08:30:32",1
"17/10/17","08:50",0.2,14.7,97.4,1017.8,286.5,0.8,1.2,244.5,0.02,14.3,17.5,"08:49:52",1
"17/10/17","09:00",0.0,14.9,97.4,1017.5,279.4,0.7,1.2,324.2,0.02,14.5,17.6,"08:58:40",1
"17/10/17","09:10",0.0,14.9,97.2,1017.5,300.4,0.7,1.4,325.8,0.03,14.5,17.4,"09:02:40",1
"17/10/17","09:20",0.2,14.9,97.1,1017.5,276.2,0.6,0.8,269.2,0.03,14.5,17.6,"09:11:12",1
"17/10/17","09:30",0.0,15.0,97.1,1017.5,298.5,0.7,1.0,243.8,0.03,14.6,17.6,"09:20:32",1
"17/10/17","09:40",0.0,15.1,96.9,1017.8,278.5,0.6,1.1,286.0,0.04,14.7,17.5,"09:34:08",1
"17/10/17","09:50",0.2,15.2,96.8,1017.3,233.3,0.6,1.1,220.7,0.05,14.7,17.6,"09:43:28",1
"17/10/17","10:00",0.0,15.2,96.5,1017.5,238.8,0.7,1.2,227.3,0.06,14.7,17.5,"09:59:12",1
"17/10/17","10:10",0.0,15.3,96.4,1017.5,247.0,0.6,1.1,247.3,0.05,14.8,17.6,"10:07:28",1
"17/10/17","10:20",0.2,15.3,96.3,1017.5,273.0,0.8,1.3,300.7,0.05,14.8,17.8,"10:12:32",1
"17/10/17","10:30",0.0,15.4,96.1,1017.3,252.2,0.5,0.9,234.7,0.04,14.8,17.7,"10:20:08",1
"17/10/17","10:40",0.0,15.5,95.6,1017.8,233.1,0.6,1.6,240.9,0.08,14.8,17.7,"10:39:12",1
"17/10/17","10:50",0.2,15.6,95.3,1017.1,242.4,0.7,1.4,240.1,0.11,14.9,17.9,"10:40:56",1
"17/10/17","11:00",0.0,16.0,93.8,1017.1,291.6,0.5,1.4,247.3,0.11,15.0,17.6,"10:58:32",1
"17/10/17","11:10",0.0,16.1,93.2,1017.1,233.7,0.8,1.7,222.2,0.11,15.0,17.9,"11:01:52",1
"17/10/17","11:20",0.2,16.3,93.0,1016.6,264.8,0.6,1.1,241.8,0.10,15.2,17.9,"11:10:08",1
"17/10/17","11:30",0.0,16.2,92.1,1016.6,193.2,0.3,1.1,238.1,0.10,15.0,18.1,"11:21:12",1
"17/10/17","11:40",0.0,16.5,91.5,1016.8,317.3,0.5,0.9,287.8,0.10,15.2,17.8,"11:39:36",1
"17/10/17","11:50",0.2,16.6,91.2,1016.8,257.8,0.7,1.4,228.2,0.09,15.2,18.0,"11:47:04",1
"17/10/17","12:00",0.0,16.6,90.9,1016.4,251.6,0.3,0.9,253.2,0.09,15.1,18.2,"11:55:04",1
"17/10/17","12:10",0.0,16.8,90.5,1016.4,284.5,0.7,1.2,307.7,0.12,15.3,18.3,"12:02:08",1
"17/10/17","12:20",0.2,17.0,90.9,1016.4,285.5,0.5,0.8,265.8,0.09,15.5,18.3,"12:14:08",1
"17/10/17","12:30",0.0,17.1,91.0,1016.4,289.4,0.5,0.9,302.4,0.10,15.7,18.3,"12:29:04",1
"17/10/17","12:40",0.0,17.0,90.2,1016.4,340.0,0.7,1.3,350.0,0.11,15.4,18.3,"12:36:32",1
"17/10/17","12:50",0.0,17.1,89.7,1016.1,328.1,0.8,1.2,325.9,0.11,15.4,18.3,"12:42:56",1
"17/10/17","13:00",0.2,17.4,89.5,1016.1,343.4,0.8,1.6,338.9,0.09,15.7,18.4,"12:52:00",1
"17/10/17","13:10",0.0,17.4,89.2,1015.6,341.8,0.7,1.3,357.5,0.09,15.6,18.4,"13:02:40",1
"17/10/17","13:20",0.0,17.5,89.2,1015.9,335.0,0.6,1.6,343.6,0.08,15.7,18.4,"13:12:56",1
"17/10/17","13:30",0.0,17.4,89.3,1015.9,341.8,1.0,1.9,322.9,0.08,15.7,18.5,"13:27:28",1
"17/10/17","13:40",0.2,17.4,90.0,1015.9,308.5,1.1,1.7,339.7,0.09,15.8,18.5,"13:30:16",1
"17/10/17","13:50",0.0,17.5,89.3,1015.6,270.7,0.7,1.4,225.4,0.09,15.8,18.7,"13:46:48",1
"17/10/17","14:00",0.0,17.5,89.3,1015.6,277.4,0.3,0.8,250.5,0.08,15.8,18.4,"13:55:12",1
"17/10/17","14:10",0.0,17.6,89.1,1015.6,255.8,0.6,1.2,230.3,0.07,15.8,18.5,"14:08:56",1
"17/10/17","14:20",0.0,17.4,88.7,1015.6,185.9,0.8,1.8,134.2,0.07,15.6,18.7,"14:19:52",1
"17/10/17","14:30",0.0,17.3,89.7,1015.4,205.0,0.6,1.3,217.8,0.08,15.6,18.7,"14:22:08",1
"17/10/17","14:40",0.2,17.2,90.1,1015.6,205.1,0.6,1.8,218.1,0.07,15.6,18.7,"14:36:48",1
"17/10/17","14:50",0.0,17.1,89.6,1016.1,219.8,0.7,1.6,224.1,0.06,15.4,18.8,"14:49:36",1
"17/10/17","15:00",0.0,17.0,89.9,1015.4,193.9,0.7,2.0,170.5,0.06,15.4,18.7,"14:54:56",1
"17/10/17","15:10",0.0,17.0,89.9,1015.9,185.8,0.6,1.3,136.1,0.06,15.4,18.9,"15:05:12",1
"17/10/17","15:20",0.0,16.8,89.8,1015.6,211.6,0.7,1.4,231.9,0.05,15.2,18.5,"15:13:12",1
"17/10/17","15:30",0.0,16.8,89.9,1015.6,211.9,0.8,2.2,210.8,0.05,15.2,18.9,"15:26:32",1
"17/10/17","15:40",0.0,16.7,90.1,1015.6,204.9,0.7,1.7,154.6,0.05,15.1,18.7,"15:30:32",1
"17/10/17","15:50",0.0,16.5,90.1,1015.6,203.3,0.7,2.7,214.4,0.03,14.9,18.7,"15:41:04",1
"17/10/17","16:00",0.0,16.4,90.5,1015.4,193.0,0.2,0.9,178.3,0.03,14.9,18.7,"15:52:24",1
"17/10/17","16:10",0.0,16.4,91.4,1015.4,288.6,0.5,0.9,310.7,0.03,15.0,18.6,"16:08:24",1
"17/10/17","16:20",0.2,16.4,91.7,1015.4,336.0,1.0,1.3,350.6,0.02,15.1,18.5,"16:15:20",1
"17/10/17","16:30",0.0,16.3,92.1,1015.2,331.8,1.1,1.9,328.1,0.01,15.1,18.6,"16:29:36",1
"17/10/17","16:40",0.0,16.0,92.7,1015.4,316.0,1.1,1.7,334.7,0.01,14.9,18.7,"16:30:32",1
"17/10/17","16:50",0.0,15.8,93.3,1015.6,320.4,0.8,1.2,333.3,0.00,14.8,18.4,"16:41:28",1
"17/10/17","17:00",0.0,15.7,93.6,1015.6,317.9,0.8,1.6,335.6,0.00,14.7,18.4,"16:51:28",1
"17/10/17","17:10",0.0,15.3,93.9,1015.9,329.4,0.8,1.4,334.0,0.00,14.4,18.5,"17:09:12",1
"17/10/17","17:20",0.0,15.0,94.3,1015.6,323.8,1.0,1.6,327.5,0.00,14.1,18.5,"17:18:24",1
"17/10/17","17:30",0.0,14.7,94.7,1015.6,294.0,1.0,1.8,330.5,0.00,13.9,18.3,"17:27:52",1
"17/10/17","17:40",0.0,14.4,95.0,1015.6,319.9,0.7,1.7,330.0,0.00,13.6,18.2,"17:39:28",1
"17/10/17","17:50",0.0,14.2,95.4,1015.6,327.0,1.3,1.9,318.1,0.00,13.5,18.2,"17:44:50",1
"17/10/17","18:00",0.0,14.0,95.6,1015.6,311.7,0.7,1.2,309.1,0.00,13.3,18.2,"17:52:40",1
"17/10/17","18:10",0.0,13.8,95.7,1015.9,321.2,0.5,1.2,309.2,0.00,13.2,18.1,"18:09:28",1
"17/10/17","18:20",0.0,13.4,95.9,1016.1,306.1,1.2,1.6,320.9,0.00,12.8,18.1,"18:10:18",1
"17/10/17","18:30",0.0,13.2,96.0,1016.1,315.0,1.2,1.8,314.6,0.00,12.6,17.9,"18:29:16",1
"17/10/17","18:40",0.0,13.1,96.6,1016.1,318.4,1.3,1.8,320.8,0.00,12.6,18.0,"18:30:32",1
"17/10/17","18:50",0.0,13.0,96.6,1016.4,293.0,1.0,1.3,337.2,0.00,12.5,17.8,"18:46:10",1
"17/10/17","19:00",0.0,13.0,97.2,1016.6,303.9,1.2,1.8,311.6,0.00,12.6,17.7,"18:56:14",1
"17/10/17","19:10",0.0,13.1,97.0,1016.6,317.9,1.3,2.1,324.3,0.00,12.7,17.7,"19:00:58",1
"17/10/17","19:20",0.0,12.9,96.9,1016.1,322.3,1.5,1.8,347.1,0.00,12.5,17.7,"19:13:12",1
"17/10/17","19:30",0.0,12.7,97.0,1015.9,295.2,1.2,1.8,324.7,0.00,12.3,17.5,"19:24:40",1
"17/10/17","19:40",0.0,12.7,97.3,1015.9,322.0,1.3,1.8,327.6,0.00,12.3,17.7,"19:32:00",1
"17/10/17","19:50",0.0,12.4,97.3,1016.1,282.0,0.6,1.4,330.0,0.00,12.0,17.5,"19:40:08",1
"17/10/17","20:00",0.0,12.4,97.5,1015.9,280.0,0.6,1.0,264.4,0.00,12.1,17.3,"19:53:36",1
"17/10/17","20:10",0.0,12.3,97.6,1015.9,322.9,1.5,2.2,332.5,0.00,12.0,17.3,"20:04:56",1
"17/10/17","20:20",0.0,12.2,97.8,1016.4,315.2,1.5,1.9,325.3,0.00,11.9,17.4,"20:10:32",1
"17/10/17","20:30",0.0,12.1,97.8,1016.4,301.6,1.1,1.6,325.0,0.00,11.8,17.4,"20:26:08",1
"17/10/17","20:40",0.0,12.1,98.0,1016.1,317.5,1.5,2.0,317.1,0.00,11.8,17.3,"20:30:40",1
"17/10/17","20:50",0.0,12.3,97.3,1016.4,315.2,1.3,1.9,318.1,0.00,11.9,17.3,"20:48:08",1
"17/10/17","21:00",0.0,12.1,97.9,1016.4,297.3,0.8,1.4,320.2,0.00,11.8,17.2,"20:50:56",1
"17/10/17","21:10",0.0,11.9,98.1,1016.4,297.9,1.2,1.7,325.7,0.00,11.6,17.3,"21:02:32",1
"17/10/17","21:20",0.0,12.2,97.2,1016.4,301.5,1.0,1.7,305.7,0.00,11.8,17.1,"21:15:28",1
"17/10/17","21:30",0.0,12.0,98.3,1016.6,247.6,0.6,1.0,307.6,0.00,11.8,17.1,"21:20:08",1
"17/10/17","21:40",0.0,12.2,97.3,1016.1,294.5,1.0,1.4,313.0,0.00,11.8,16.9,"21:36:08",1
"17/10/17","21:50",0.0,11.9,98.2,1016.6,324.9,1.6,2.4,321.8,0.00,11.7,16.9,"21:43:36",1
"17/10/17","22:00",0.0,12.0,97.2,1016.4,291.9,0.5,1.4,318.7,0.00,11.6,17.0,"21:50:08",1
"17/10/17","22:10",0.0,11.7,98.4,1016.4,303.0,1.2,2.0,311.7,0.00,11.5,16.8,"22:06:00",1
"17/10/17","22:20",0.0,12.0,97.4,1016.4,326.7,1.2,1.9,329.8,0.00,11.6,16.9,"22:10:24",1
"17/10/17","22:30",0.0,11.5,98.2,1016.4,293.5,0.6,1.9,317.0,0.00,11.3,16.9,"22:20:24",1
"17/10/17","22:40",0.0,11.5,97.4,1016.4,302.2,1.0,1.4,321.2,0.00,11.1,16.8,"22:34:56",1
"17/10/17","22:50",0.0,11.3,98.3,1016.1,289.5,1.0,1.9,318.1,0.00,11.1,16.6,"22:43:04",1
"17/10/17","23:00",0.0,11.6,97.7,1016.6,277.6,0.7,1.3,246.5,0.00,11.3,16.6,"22:52:24",1
"17/10/17","23:10",0.0,11.4,98.5,1016.6,321.4,1.1,1.6,323.9,0.00,11.2,16.9,"23:00:40",1
"17/10/17","23:20",0.0,11.6,97.6,1016.6,284.9,1.1,1.8,318.9,0.00,11.3,16.6,"23:11:36",1
"17/10/17","23:30",0.0,11.3,98.6,1016.4,294.7,1.1,1.7,326.2,0.00,11.1,16.7,"23:23:12",1
"17/10/17","23:40",0.0,11.4,97.7,1016.4,293.6,1.1,1.7,319.4,0.00,11.1,16.7,"23:31:52",1
"17/10/17","23:50",0.0,11.2,98.6,1016.4,295.3,1.0,1.4,340.8,0.00,11.0,16.5,"23:44:08",1
"17/10/17","24:00",0.0,11.2,97.6,1016.1,282.9,0.7,1.1,296.8,0.00,10.9,16.5,"23:59:12",1
